Regional Weather Roundup
Issued by NWS

Home | Current Version | Previous Version | Text Only | Print | Product List | Glossary Off
Versions: 1 2 3 4 5 6 7 8 9 10 11 12 13 14 15 16 17 18 19 20 21 22 23 24 25 26 27 28 29 30 31 32 33 34 35 36 37 38 39 40 41 42 43 44 45 46 47 48 49 50

000
ASUS43 KLSX 010157
RWRMO

WEATHER SUMMARY FOR MISSOURI
NATIONAL WEATHER SERVICE SPRINGFIELD MO
900 PM CDT TUE MAY 31 2016

NOTE: "FAIR" INDICATES FEW OR NO CLOUDS BELOW 12,000 FEET WITH NO
       SIGNIFICANT WEATHER AND/OR OBSTRUCTIONS TO VISIBILITY.
       CURRENT SKY AND/OR WEATHER CONDITIONS ARE NOT AVAILABLE FOR
       CHILLICOTHE AND FARMINGTON.

MOZ001>031-035>038-043-044-053-054-010300-
...NORTHERN AND WESTERN MISSOURI...

CITY           SKY/WX    TMP DP  RH WIND       PRES   REMARKS
KANSAS CTY INT CLOUDY    72  64  76 SW3       29.93R
LEE`S SUMMIT   PTCLDY    72  65  78 W3        29.93R
ST JOSEPH      MOCLDY    72  63  73 N8        29.92R
CHILLICOTHE      N/A     71  66  84 CALM      29.92R

$$
MOZ066>068-077>081-088>096-101>105-010300-
...SOUTHWEST MISSOURI...

CITY           SKY/WX    TMP DP  RH WIND       PRES   REMARKS
SPRINGFIELD    CLOUDY    73  65  75 S7        29.92R
JOPLIN         CLOUDY    69  65  86 NE9       29.94R
BRANSON        CLOUDY    68  68 100 CALM      29.94R

$$
MOZ032>034-039>042-045>050-055>058-069>072-010300-
...CENTRAL MISSOURI...

CITY           SKY/WX    TMP DP  RH WIND       PRES   REMARKS
COLUMBIA       NOT AVBL
JEFFERSON CITY PTCLDY    76  66  71 CALM      29.90R
ROLLA          CLOUDY    72  65  78 S5        29.91S
SEDALIA        HVY RAIN  72  64  76 VRB6      29.93R
WARRENSBURG    CLOUDY    72  66  83 CALM      29.91R

$$
MOZ051-052-059>065-010300-
...EAST CENTRAL MISSOURI...

CITY           SKY/WX    TMP DP  RH WIND       PRES   REMARKS
ST LOUIS INTL  MOCLDY    81  63  54 S6        29.91R

$$
MOZ072>076-082>087-097>100-106>115-010300-
...SOUTH CENTRAL AND SOUTHEAST MISSOURI...

CITY           SKY/WX    TMP DP  RH WIND       PRES   REMARKS
CAPE GIRARDEAU CLOUDY    73  67  81 SW5       29.91R
POPLAR BLUFF   MOCLDY    74  70  87 CALM      29.91R
WEST PLAINS    CLOUDY    73  66  78 CALM      29.95R

$$


USA.gov is the U.S. government's official web portal to all federal, state and local government web resources and services.